Location: Unspecified
(46.0725°N, 13.7344°E)
Time: 21:48:19
(UTC+02:00)

Okean 3 - Visible Passes

Search period start: 21 June 2018 00:00
Search period end: 01 July 2018 00:00
Orbit: 576 x 603 km, 82.5° (Epoch: 20 June)

Date Brightness Start Highest point End Pass type
(mag) Time Alt. Az. Time Alt. Az. Time Alt. Az.
21 Jun 5.7 03:32:03 10° NNE 03:35:32 25° ENE 03:39:01 10° SE visible
22 Jun 5.0 03:39:50 10° N 03:43:43 35° ENE 03:47:35 10° SE visible
23 Jun 4.2 03:47:44 10° N 03:51:51 52° ENE 03:55:58 10° SSE visible
24 Jun 3.6 03:55:44 10° N 03:59:57 79° E 04:04:10 10° SSE visible
25 Jun 6.3 02:28:35 10° NE 02:30:15 12° ENE 02:31:55 10° E visible
25 Jun 3.4 04:03:49 10° NNW 04:08:01 70° W 04:12:12 10° S visible
26 Jun 6.1 02:35:43 10° NNE 02:38:31 17° ENE 02:41:18 10° ESE visible
26 Jun 3.8 04:12:00 10° NNW 04:16:02 46° W 04:20:05 10° SSW visible
27 Jun 5.6 02:43:18 10° NNE 02:46:44 24° ENE 02:50:10 10° SE visible
27 Jun 4.3 04:20:17 10° NNW 04:24:02 31° W 04:27:47 10° SSW visible
28 Jun 5.0 02:51:04 10° N 02:54:56 34° ENE 02:58:47 10° SE visible
28 Jun 4.8 04:28:43 10° NW 04:31:59 22° W 04:35:15 10° SW visible
29 Jun 4.2 02:58:57 10° N 03:03:04 49° ENE 03:06:56 11° SSE visible
29 Jun 5.3 04:37:24 10° NW 04:39:53 15° W 04:42:24 10° WSW visible
30 Jun 3.6 03:06:56 10° N 03:11:11 74° E 03:14:29 16° SSE visible
